SEKJK ESSA-ESOW

Flight info

Callsign SEKJK
Flight time 0h 25m
Altitude
Route VFR·VASS/19R
Aircraft C172

Departure

Time 2026-05-04 17:38
Airport Stockholm-Arlanda Airport (ESSA)

Arrival

Time 2026-05-04 18:03
Airport Stockholm Västerås Airport (ESOW)
Time Latitude Longitude Altitude Speed Heading
2026-05-04 17:23 59.64034 17.91903 128 ft 0 kts 280°
2026-05-04 17:26 59.64035 17.91899 128 ft 2 kts 296°
2026-05-04 17:27 59.64078 17.91971 128 ft 3 kts 29°
2026-05-04 17:27 59.64138 17.91965 128 ft 1 kts 290°
2026-05-04 17:28 59.64145 17.91885 128 ft 0 kts 281°
2026-05-04 17:29 59.64207 17.91860 128 ft 12 kts 10°
2026-05-04 17:29 59.64342 17.91907 128 ft 7 kts 10°
2026-05-04 17:30 59.64501 17.91965 128 ft 15 kts 10°
2026-05-04 17:31 59.64656 17.92020 128 ft 13 kts 10°
2026-05-04 17:31 59.64943 17.92125 128 ft 14 kts 13°
2026-05-04 17:32 59.65039 17.92161 128 ft 14 kts 10°
2026-05-04 17:33 59.65217 17.92224 128 ft 0 kts 10°
2026-05-04 17:33 59.65271 17.92243 128 ft 7 kts 10°
2026-05-04 17:34 59.65462 17.92314 128 ft 12 kts 11°
2026-05-04 17:34 59.65523 17.92336 128 ft 8 kts 10°
2026-05-04 17:35 59.65730 17.92409 128 ft 7 kts 11°
2026-05-04 17:35 59.65795 17.92394 128 ft 7 kts 291°
2026-05-04 17:35 59.65799 17.92276 128 ft 7 kts 245°
2026-05-04 17:36 59.65768 17.92210 128 ft 11 kts 224°
2026-05-04 17:36 59.65718 17.92116 128 ft 10 kts 224°
2026-05-04 17:36 59.65674 17.92034 128 ft 7 kts 216°
2026-05-04 17:36 59.65656 17.92021 128 ft 0 kts 189°
2026-05-04 17:37 59.65492 17.91966 128 ft 52 kts 188°
2026-05-04 17:37 59.65018 17.91875 216 ft 71 kts 177°
2026-05-04 17:37 59.64524 17.91810 446 ft 77 kts 186°
2026-05-04 17:38 59.64158 17.91727 718 ft 68 kts 188°
2026-05-04 17:38 59.63806 17.91031 782 ft 91 kts 264°
2026-05-04 17:38 59.63990 17.90153 1169 ft 63 kts 307°
2026-05-04 17:38 59.64284 17.89513 1268 ft 83 kts 319°
2026-05-04 17:39 59.64954 17.88331 1776 ft 79 kts 318°
2026-05-04 17:39 59.65256 17.87799 2029 ft 73 kts 318°
2026-05-04 17:39 59.65718 17.86968 1966 ft 108 kts 317°
2026-05-04 17:40 59.66346 17.85842 1677 ft 133 kts 317°
2026-05-04 17:40 59.66911 17.84816 1362 ft 144 kts 317°
2026-05-04 17:40 59.67668 17.83455 1038 ft 145 kts 317°
2026-05-04 17:40 59.68312 17.82291 986 ft 135 kts 318°
2026-05-04 17:41 59.68857 17.80962 966 ft 129 kts 300°
2026-05-04 17:41 59.69104 17.80145 990 ft 125 kts 301°
2026-05-04 17:41 59.69518 17.78738 988 ft 124 kts 300°
2026-05-04 17:41 59.69939 17.77257 996 ft 123 kts 299°
2026-05-04 17:42 59.70363 17.75791 999 ft 123 kts 300°
2026-05-04 17:42 59.70783 17.74313 1000 ft 123 kts 299°
2026-05-04 17:42 59.71200 17.72839 1000 ft 123 kts 299°
2026-05-04 17:42 59.71572 17.71525 1000 ft 123 kts 299°
2026-05-04 17:43 59.71796 17.69926 993 ft 123 kts 263°
2026-05-04 17:43 59.71616 17.68686 1062 ft 119 kts 255°
2026-05-04 17:43 59.71457 17.67054 1045 ft 122 kts 260°
2026-05-04 17:43 59.71336 17.65667 1155 ft 116 kts 260°
2026-05-04 17:44 59.71301 17.65265 1189 ft 114 kts 260°
2026-05-04 17:44 59.71221 17.64341 1263 ft 113 kts 260°
2026-05-04 17:44 59.71106 17.63019 1356 ft 113 kts 260°
2026-05-04 17:44 59.70967 17.61422 1414 ft 116 kts 260°
2026-05-04 17:45 59.70828 17.59824 1421 ft 120 kts 260°
2026-05-04 17:45 59.70686 17.58185 1413 ft 122 kts 260°
2026-05-04 17:45 59.70541 17.56516 1405 ft 123 kts 260°
2026-05-04 17:45 59.70396 17.54849 1401 ft 123 kts 260°
2026-05-04 17:46 59.70251 17.53182 1400 ft 123 kts 260°
2026-05-04 17:46 59.70106 17.51518 1399 ft 123 kts 260°
2026-05-04 17:46 59.69961 17.49848 1400 ft 123 kts 260°
2026-05-04 17:46 59.69816 17.48183 1400 ft 123 kts 260°
2026-05-04 17:47 59.69672 17.46523 1400 ft 123 kts 260°
2026-05-04 17:47 59.69527 17.44858 1400 ft 123 kts 260°
2026-05-04 17:47 59.69382 17.43191 1400 ft 123 kts 260°
2026-05-04 17:47 59.69239 17.41542 1445 ft 120 kts 260°
2026-05-04 17:48 59.69123 17.40213 1488 ft 119 kts 260°
2026-05-04 17:48 59.68982 17.38591 1505 ft 120 kts 260°
2026-05-04 17:48 59.68840 17.36950 1507 ft 122 kts 260°
2026-05-04 17:48 59.68695 17.35291 1504 ft 123 kts 260°
2026-05-04 17:49 59.68553 17.33634 1455 ft 123 kts 259°
2026-05-04 17:49 59.68440 17.32300 1323 ft 127 kts 259°
2026-05-04 17:49 59.68295 17.30581 1186 ft 127 kts 259°
2026-05-04 17:49 59.68151 17.28873 1099 ft 124 kts 259°
2026-05-04 17:50 59.68012 17.27217 1081 ft 120 kts 259°
2026-05-04 17:50 59.67875 17.25623 1084 ft 117 kts 258°
2026-05-04 17:50 59.67732 17.24064 1092 ft 115 kts 258°
2026-05-04 17:50 59.67588 17.22515 1097 ft 114 kts 258°
2026-05-04 17:51 59.67446 17.20972 1100 ft 114 kts 258°
2026-05-04 17:51 59.67303 17.19427 1101 ft 114 kts 258°
2026-05-04 17:51 59.67159 17.17881 1101 ft 114 kts 258°
2026-05-04 17:51 59.67016 17.16338 1101 ft 114 kts 258°
2026-05-04 17:52 59.66873 17.14790 1101 ft 115 kts 258°
2026-05-04 17:52 59.66730 17.13247 1101 ft 115 kts 258°
2026-05-04 17:52 59.66587 17.11701 1101 ft 114 kts 258°
2026-05-04 17:52 59.66444 17.10157 1101 ft 115 kts 258°
2026-05-04 17:53 59.66301 17.08610 1101 ft 115 kts 258°
2026-05-04 17:53 59.66158 17.07067 1101 ft 115 kts 258°
2026-05-04 17:53 59.66014 17.05517 1101 ft 114 kts 258°
2026-05-04 17:53 59.65871 17.03974 1101 ft 114 kts 258°
2026-05-04 17:54 59.65728 17.02431 1101 ft 115 kts 258°
2026-05-04 17:54 59.65585 17.00882 1101 ft 114 kts 258°
2026-05-04 17:54 59.65444 16.99349 1096 ft 111 kts 258°
2026-05-04 17:54 59.65310 16.97891 1067 ft 105 kts 258°
2026-05-04 17:55 59.65183 16.96503 1072 ft 101 kts 258°
2026-05-04 17:55 59.65084 16.95407 1080 ft 98 kts 258°
2026-05-04 17:55 59.64965 16.94094 1090 ft 97 kts 258°
2026-05-04 17:55 59.64849 16.92812 1143 ft 91 kts 258°
2026-05-04 17:56 59.64744 16.91627 1251 ft 85 kts 258°
2026-05-04 17:56 59.64644 16.90490 1324 ft 86 kts 258°
2026-05-04 17:56 59.64538 16.89298 1336 ft 90 kts 258°
2026-05-04 17:56 59.64451 16.88331 1330 ft 93 kts 258°
2026-05-04 17:57 59.64361 16.87328 1320 ft 95 kts 258°
2026-05-04 17:57 59.64244 16.86035 1309 ft 96 kts 258°
2026-05-04 17:57 59.64126 16.84728 1303 ft 97 kts 258°
2026-05-04 17:57 59.64007 16.83425 1300 ft 97 kts 257°
2026-05-04 17:58 59.63903 16.82381 1299 ft 96 kts 257°
2026-05-04 17:58 59.63828 16.81413 1297 ft 97 kts 266°
2026-05-04 17:58 59.63826 16.80095 1303 ft 96 kts 268°
2026-05-04 17:58 59.63831 16.78787 1294 ft 95 kts 268°
2026-05-04 17:59 59.63836 16.77502 1313 ft 92 kts 268°
2026-05-04 17:59 59.63842 16.76533 1300 ft 92 kts 268°
2026-05-04 17:59 59.63858 16.74254 1295 ft 91 kts 268°
2026-05-04 18:00 59.63866 16.72976 1222 ft 96 kts 268°
2026-05-04 18:00 59.63873 16.71636 1140 ft 99 kts 268°
2026-05-04 18:00 59.63876 16.70279 1053 ft 100 kts 267°
2026-05-04 18:00 59.63870 16.68907 935 ft 100 kts 267°
2026-05-04 18:01 59.63865 16.67568 878 ft 95 kts 267°
2026-05-04 18:01 59.63861 16.66310 858 ft 89 kts 267°
2026-05-04 18:01 59.63679 16.65238 842 ft 85 kts 218°
2026-05-04 18:02 59.62560 16.64809 858 ft 84 kts 195°
2026-05-04 18:02 59.62019 16.64649 707 ft 76 kts 183°
2026-05-04 18:02 59.61551 16.64543 563 ft 57 kts 197°
2026-05-04 18:02 59.61159 16.64358 429 ft 61 kts 201°
2026-05-04 18:03 59.60737 16.64148 288 ft 63 kts 199°
2026-05-04 18:03 59.60313 16.63954 125 ft 62 kts 198°
2026-05-04 18:03 59.59926 16.63788 25 ft 51 kts 200°
2026-05-04 18:03 59.59749 16.63701 25 ft 12 kts 171°
2026-05-04 18:04 59.59700 16.63696 25 ft 5 kts 310°
2026-05-04 18:04 59.59724 16.63690 25 ft 0 kts 10°
2026-05-04 18:04 59.59735 16.63694 25 ft 3 kts 11°
2026-05-04 18:05 59.59786 16.63714 25 ft 13 kts 11°
2026-05-04 18:05 59.59876 16.63747 25 ft 13 kts 13°
2026-05-04 18:05 59.59978 16.63790 25 ft 14 kts 13°
2026-05-04 18:05 59.60086 16.63833 25 ft 13 kts
2026-05-04 18:06 59.60171 16.63615 25 ft 11 kts 273°
2026-05-04 18:06 59.60159 16.63448 25 ft 10 kts 247°
2026-05-04 18:06 59.60118 16.63344 25 ft 8 kts 222°
2026-05-04 18:07 59.60120 16.63236 25 ft 11 kts 302°
2026-05-04 18:07 59.60177 16.63179 25 ft 10 kts 352°
2026-05-04 18:07 59.60190 16.63167 25 ft 0 kts 294°